Lapse_Rate
5.9 5.8 6.0 6.3 6.6 7.5 7.4 7.4 7.3 7.8 6.7 7.1 7.5 7.4 7.7 7.8 8.0 8.0 7.9 7.8 7.6 7.5 7.4 7.2 7.2 7.1 6.9 6.7 6.0 5.7 5.3 5.3 5.0 5.5 5.8 6.2 6.5 6.6 6.8 7.2 7.3 7.2 7.2 7.1
5.7 5.9 6.4 6.8 6.6 6.6 6.8 7.2 7.5 6.9 6.5 6.8 7.3 7.3 6.9 7.7 7.8 8.0 7.8 7.7 7.6 7.5 7.6 7.4 7.1 6.9 6.8 6.7 6.2 5.7 5.7 5.5 5.6 5.8 5.7 5.6 5.6 6.4 6.7 7.0 7.4 7.2 7.2 7.0
6.4 6.6 6.7 6.2 6.2 6.3 6.6 7.0 7.3 6.9 6.1 6.8 6.8 7.1 6.6 7.5 7.5 7.6 7.7 7.6 7.5 7.5 7.3 7.4 7.3 7.1 6.9 6.9 6.5 6.1 6.2 6.2 5.9 6.1 6.2 6.1 6.6 6.5 6.7 7.0 7.1 7.2 7.1 7.0
6.5 6.4 6.5 6.3 6.5 6.6 6.9 7.1 7.2 6.9 6.6 7.2 6.7 8.0 6.8 6.9 7.5 7.4 7.4 7.4 7.4 7.4 7.4 7.4 7.3 7.2 7.0 6.7 6.7 6.8 6.7 6.6 6.8 6.8 6.9 6.7 6.9 6.7 6.4 6.9 6.9 6.8 6.7 6.7
6.3 6.2 6.5 6.6 6.7 6.8 7.4 7.0 6.9 6.8 7.0 7.7 6.6 7.5 9.2 7.1 6.5 7.3 7.6 7.6 7.5 7.6 7.5 7.4 7.1 7.0 7.0 6.8 6.7 6.8 6.7 6.6 6.5 6.6 6.7 7.0 7.1 6.9 7.0 6.8 7.0 7.0 6.8 6.8
7.1 6.7 6.7 6.8 7.1 6.9 7.3 7.0 6.9 6.9 7.2 7.2 7.6 7.4 7.8 6.6 6.5 7.5 7.6 7.6 7.7 7.7 7.5 7.4 7.0 7.0 6.9 6.9 6.8 6.9 6.8 6.7 6.6 6.7 6.7 6.7 6.8 6.7 6.8 6.7 6.6 6.4 6.4 6.4
6.6 6.2 6.2 6.6 6.9 6.8 6.9 7.2 7.6 7.5 7.3 7.1 7.7 7.4 7.4 7.0 6.9 7.2 7.7 7.9 7.8 7.8 7.6 7.3 7.1 7.0 6.9 7.0 6.9 6.7 6.6 6.8 6.7 6.8 6.7 6.7 6.9 7.2 6.9 6.6 6.4 6.7 7.0 6.9
6.8 6.6 6.2 6.3 6.7 6.8 6.8 7.3 7.9 7.3 7.6 7.9 6.4 6.6 6.6 6.8 7.0 7.5 7.6 7.3 7.3 7.5 7.6 7.4 7.0 6.9 6.9 6.7 6.6 6.5 6.6 6.7 6.7 6.9 7.0 7.1 7.0 7.0 7.0 6.8 6.8 6.8 6.6 6.4
7.4 7.7 7.0 6.7 6.9 7.1 6.9 7.2 7.9 8.2 7.5 8.6 7.2 6.8 6.4 6.7 7.3 7.6 7.8 7.9 7.6 7.7 7.5 7.2 7.0 7.1 6.9 6.7 6.6 6.5 6.7 6.9 6.9 7.0 7.2 7.1 7.0 6.9 6.9 6.9 6.7 6.5 6.4 6.4
7.4 7.9 7.2 7.0 7.3 7.4 7.3 7.8 7.8 7.6 7.2 7.6 8.2 7.6 7.1 7.4 7.4 7.4 7.4 7.8 7.8 7.7 7.5 7.4 7.3 7.3 7.1 6.8 6.6 6.7 6.8 6.8 6.9 7.2 7.1 7.1 6.9 6.8 6.8 6.7 6.7 6.4 6.5 6.5
7.7 7.8 7.7 7.6 6.9 7.4 7.0 7.4 7.7 8.2 8.3 8.2 8.4 7.6 7.4 7.9 7.7 7.4 7.8 7.7 7.8 7.8 7.9 7.9 7.8 7.6 7.1 6.8 6.7 6.6 6.7 7.0 7.2 7.2 7.1 7.0 6.7 6.7 6.8 6.8 6.8 6.6 6.4 6.3
7.5 8.0 8.2 7.3 7.8 7.9 7.7 7.9 7.6 7.3 7.2 7.5 8.1 8.0 7.7 7.9 8.0 7.9 8.0 8.3 7.9 7.8 7.6 7.7 7.6 7.4 7.0 6.9 6.8 6.9 7.0 7.1 7.1 7.1 6.9 6.8 6.8 6.8 6.9 7.1 6.7 6.6 6.4 6.3
7.8 7.8 7.9 7.9 8.0 7.7 7.6 7.7 7.8 8.0 8.0 7.6 7.7 7.7 8.2 8.3 8.3 8.5 8.6 8.3 8.1 7.7 7.7 7.7 7.7 7.6 7.5 7.4 7.2 7.0 6.9 6.9 6.9 6.9 6.7 6.7 6.8 6.8 7.1 6.6 6.6 6.4 6.4 6.6
7.8 7.8 7.9 8.1 7.6 7.8 7.5 7.8 8.0 8.0 7.9 7.5 7.7 8.2 8.1 8.5 8.7 8.5 8.5 8.2 8.1 8.0 7.9 8.0 8.1 7.9 7.7 7.4 7.1 6.7 6.5 6.5 6.5 6.5 6.6 6.6 6.6 6.6 6.6 6.6 6.5 6.5 6.5 6.6
7.9 7.9 7.9 7.8 8.7 8.3 8.0 7.9 7.9 7.8 7.5 7.9 8.1 8.1 8.5 8.6 8.8 8.8 8.7 8.5 8.3 8.0 8.1 8.3 8.2 8.1 7.8 7.4 6.9 6.5 6.4 6.4 6.4 6.4 6.5 6.4 6.5 6.6 6.6 6.5 6.5 6.5 6.5 6.6
7.8 7.9 8.1 7.9 8.0 8.1 8.3 8.3 8.0 8.0 8.0 8.1 8.5 8.2 8.5 8.6 8.6 8.8 8.9 8.7 8.4 8.2 8.2 8.2 8.0 7.9 7.8 7.6 7.0 6.6 6.5 6.3 6.4 6.3 6.4 6.5 6.6 6.6 6.5 6.5 6.5 6.5 6.6 6.7
7.2 7.4 7.9 7.7 7.8 8.1 8.6 7.8 8.0 8.1 8.3 8.4 8.6 8.8 8.2 8.5 8.5 8.7 8.8 8.7 8.4 8.2 8.2 8.1 8.1 8.1 8.0 7.6 7.1 6.8 6.5 6.3 6.4 6.3 6.6 6.7 6.6 6.7 6.6 6.6 6.6 6.6 6.6 6.7
6.4 6.5 6.9 7.8 8.3 8.4 7.4 8.0 8.0 7.9 8.3 8.8 8.9 9.0 8.4 8.7 8.9 8.9 8.8 8.9 8.4 8.2 8.1 8.1 8.1 8.0 7.8 7.3 6.9 6.4 6.3 6.2 6.4 6.5 6.7 6.7 6.7 6.8 6.7 6.6 6.5 6.5 6.5 6.6
6.1 6.2 6.6 7.6 8.2 8.4 8.3 8.2 8.0 8.0 8.0 8.3 8.4 8.3 8.3 8.4 8.4 8.4 8.5 8.6 8.4 8.0 8.0 7.8 7.7 7.7 7.4 7.1 6.8 6.6 6.3 6.5 6.6 6.7 6.8 6.8 6.7 6.8 6.7 6.6 6.5 6.4 6.5 6.5
6.1 6.2 6.7 7.1 8.4 8.7 8.7 8.5 8.3 8.4 8.4 8.5 8.4 8.5 8.5 8.4 8.3 8.3 8.4 8.4 8.3 8.0 7.9 7.7 7.8 7.9 7.6 7.1 6.9 6.8 6.8 7.0 7.0 7.0 7.0 6.8 6.7 6.7 6.6 6.5 6.4 6.4 6.5 6.5
6.4 6.6 6.4 6.9 7.8 8.8 8.6 8.6 8.4 8.4 8.5 8.9 8.7 8.5 8.7 8.3 8.3 8.6 8.4 8.3 8.1 7.8 7.6 7.6 7.6 7.9 7.9 7.5 7.0 7.2 7.3 7.4 7.3 7.0 6.8 6.8 6.8 6.7 6.6 6.5 6.5 6.5 6.5 6.5
6.5 6.2 6.6 7.0 7.6 8.4 8.5 8.9 8.3 8.5 8.5 8.7 8.8 8.9 8.8 8.6 8.5 8.6 8.4 8.0 7.8 7.7 7.5 7.5 7.3 7.6 7.6 7.7 7.5 7.3 7.6 7.4 7.4 7.2 7.0 7.0 6.9 6.7 6.7 6.8 6.6 6.6 6.6 6.5
6.8 6.4 6.6 6.8 7.1 7.2 7.6 8.2 8.5 8.5 8.6 8.9 8.9 8.7 8.9 8.9 8.6 8.6 8.5 8.0 7.8 7.7 7.5 7.5 7.3 7.2 7.4 7.7 7.8 7.6 7.6 7.4 7.4 7.2 7.2 7.1 7.0 6.8 6.9 6.8 6.7 6.6 6.6 6.5
6.4 6.3 6.3 6.6 6.6 6.5 7.1 7.6 7.9 8.4 8.7 8.9 8.9 8.8 8.9 8.7 8.5 8.6 8.5 8.4 8.1 7.9 7.7 7.6 7.5 7.4 7.5 7.7 7.7 7.6 7.2 7.2 7.2 7.2 7.2 7.2 7.1 7.0 7.0 6.9 6.7 6.7 6.6 6.5
6.1 6.0 6.1 6.5 6.7 6.5 6.7 7.5 7.8 7.9 8.5 8.5 8.6 8.7 8.7 8.7 8.7 8.6 8.4 8.3 8.2 8.1 8.0 7.6 7.6 7.6 7.7 7.8 7.7 7.5 7.3 7.3 7.0 7.1 7.1 7.1 7.1 7.0 7.0 6.9 6.7 6.6 6.5 6.4
6.6 6.1 5.9 5.8 6.4 6.6 6.8 7.1 7.4 7.4 7.7 7.9 8.4 8.3 8.3 8.4 8.4 8.4 8.2 8.1 8.2 8.1 8.1 7.9 7.8 7.8 7.8 7.8 7.7 7.6 7.4 7.3 7.1 7.0 7.2 7.3 7.3 7.2 7.1 7.0 6.8 6.6 6.5 6.4
Wind_Speed
16 12 18 20 19 14 15 18 16 16 13 17 18 12 13 15 14 17 16 16 16 15 13 11 10 10 9 11 13 12 8 7 7 8 6 5 5 6 6 10 11 11 12 11
10 19 18 17 17 13 14 20 18 7 8 14 14 13 12 14 16 16 17 17 17 15 14 13 12 11 10 12 13 12 11 9 6 5 5 5 5 6 7 10 12 12 13 12
17 12 15 13 16 17 16 18 16 14 12 14 10 18 14 14 13 15 15 15 16 17 16 15 14 12 11 14 14 13 13 11 5 7 7 7 9 7 5 6 7 11 13 11
16 9 18 19 20 18 17 15 14 14 17 13 18 13 21 18 18 17 18 18 18 16 15 15 15 14 14 13 13 12 12 11 9 9 7 7 5 5 5 6 8 11 9 11
14 17 17 23 23 21 16 15 15 15 17 13 15 13 13 23 18 21 22 22 19 19 18 18 17 15 13 12 12 11 11 11 11 9 7 5 6 6 6 6 9 8 10 12
16 7 17 16 19 19 10 14 12 12 13 12 15 16 17 15 22 24 23 23 23 21 20 18 17 15 14 13 13 14 13 12 11 10 9 9 10 9 7 7 6 5 6 9
18 13 11 12 17 17 19 20 8 10 10 9 18 14 17 14 20 24 24 25 25 23 21 20 20 18 16 15 14 13 14 13 13 11 10 10 11 11 10 9 7 7 6 6
18 17 19 17 22 15 26 23 10 17 15 15 8 10 10 15 13 16 18 20 21 22 21 22 22 19 18 17 16 15 16 15 13 12 11 10 11 8 8 6 6 6 6 6
18 19 21 20 15 17 23 20 22 4 4 12 12 11 5 9 16 17 16 15 22 24 25 24 22 20 19 18 17 16 16 15 15 13 11 10 9 9 9 10 7 6 9 9
6 12 13 16 18 21 23 20 18 12 9 11 9 15 9 17 21 19 18 19 20 22 24 23 22 21 18 18 16 16 15 15 15 14 12 10 10 9 9 9 8 7 9 9
12 8 12 21 21 23 11 19 17 16 11 13 9 7 12 14 12 19 19 19 20 22 23 23 22 20 19 18 17 16 15 15 15 13 12 11 10 10 9 8 9 8 8 9
22 9 8 27 19 21 22 23 26 11 16 9 10 4 5 6 5 10 15 16 18 19 20 21 21 21 20 19 17 16 15 15 14 13 13 12 11 11 10 9 10 11 8 8
22 13 12 7 15 14 24 23 26 20 13 17 9 6 5 6 6 7 11 14 16 17 20 20 21 21 20 19 18 17 16 15 15 14 13 13 12 12 11 11 10 11 10 8
9 18 22 16 17 15 19 24 22 24 13 15 18 14 9 10 9 9 11 13 16 18 20 21 21 22 21 20 19 17 16 15 15 15 15 14 13 12 11 11 10 9 10 8
4 18 19 25 15 12 18 23 25 26 25 20 17 21 16 15 14 12 12 14 16 19 21 22 23 22 22 21 19 18 17 16 16 15 15 14 13 12 11 11 11 10 9 8
10 9 17 16 21 14 18 20 25 27 26 25 21 18 17 16 11 13 15 18 19 20 21 22 23 24 24 23 21 19 18 17 17 16 15 14 14 13 12 12 11 10 10 9
7 7 5 16 20 22 19 17 20 25 25 24 21 14 13 14 15 16 18 19 21 21 23 24 24 24 23 23 22 21 20 18 18 16 15 15 14 14 13 12 12 11 10 9
9 10 4 4 12 19 17 20 18 14 17 14 19 16 18 18 19 19 18 20 19 20 21 21 20 21 22 22 22 20 19 19 18 17 17 16 15 14 14 13 12 11 9 9
11 9 4 4 12 7 12 10 16 18 17 16 18 13 15 10 13 12 16 17 19 20 20 20 21 22 23 23 22 21 20 19 18 18 18 17 16 15 15 14 11 11 10 9
8 12 7 2 8 13 12 9 8 15 17 18 17 16 14 13 12 11 18 17 14 15 16 18 20 20 22 23 23 22 21 20 20 19 18 17 17 16 16 14 13 11 10 9
4 1 9 8 5 4 8 9 5 13 3 13 17 16 17 15 13 13 15 16 15 14 16 17 18 19 22 22 23 23 22 21 20 18 18 17 17 16 15 14 12 11 11 9
8 6 3 6 6 6 15 2 4 8 11 7 12 16 18 16 6 8 10 14 16 17 18 19 18 18 20 22 22 23 22 20 19 19 19 18 17 13 12 15 12 12 11 10
3 4 2 4 2 5 7 7 9 9 10 8 6 10 12 13 7 7 8 9 13 16 16 17 18 19 20 22 22 23 21 20 20 19 19 18 17 15 14 15 14 11 11 9
7 7 5 5 4 1 7 12 15 14 11 11 8 4 11 10 8 8 8 8 10 13 16 16 17 19 20 21 23 21 22 21 21 20 19 17 17 16 14 12 11 10 10 9
6 8 6 4 5 6 3 16 16 16 15 13 7 4 5 8 8 6 5 7 7 10 13 15 18 18 20 20 21 21 21 21 20 20 18 17 14 16 14 13 11 11 12 10
3 5 4 3 8 8 7 15 16 13 16 14 10 8 8 6 7 6 6 4 6 9 12 14 16 16 17 19 20 21 21 22 21 19 15 13 11 12 12 11 8 10 4 9
Wind_Direction
188 200 204 196 209 225 199 212 194 204 160 196 195 183 177 172 185 171 174 175 177 173 160 159 164 164 163 148 145 135 129 148 149 135 114 100 93 81 75 74 61 58 53 51
177 215 203 208 208 214 203 208 202 162 179 216 193 202 184 184 192 189 185 184 180 171 172 168 174 175 179 174 169 166 162 164 145 122 129 98 107 89 88 83 72 62 62 55
203 200 210 199 192 200 208 211 194 186 177 214 196 214 199 194 198 198 199 197 193 186 182 174 177 179 179 176 182 172 167 150 134 117 119 127 109 127 126 105 85 70 62 64
224 156 197 197 200 201 200 210 196 195 184 202 204 220 200 195 202 200 202 206 202 190 189 181 183 183 185 179 177 173 162 151 148 152 137 154 141 136 120 108 99 84 78 69
196 190 193 203 200 198 220 185 194 194 209 200 195 239 210 198 199 207 210 207 207 199 193 185 187 183 185 172 177 179 164 165 160 154 147 146 126 139 124 119 113 107 91 76
215 219 208 210 203 195 195 180 187 206 219 221 215 215 226 193 206 212 211 207 204 200 193 188 182 175 176 178 175 178 179 172 164 161 160 148 150 139 134 128 127 112 96 88
207 195 197 219 188 192 186 168 168 200 210 223 216 209 233 180 208 216 210 207 202 195 192 187 180 180 174 175 174 179 182 171 170 170 157 156 152 148 151 150 130 135 121 100
198 210 192 190 202 184 195 192 196 204 206 208 157 230 226 225 217 218 218 210 195 195 193 192 183 182 177 177 175 177 180 173 170 168 159 159 157 156 146 141 137 119 116 110
204 215 186 183 198 190 197 209 210 221 332 215 189 223 263 217 214 200 202 203 196 192 195 193 182 183 179 178 179 180 180 173 170 166 159 161 163 154 141 130 128 131 124 124
206 222 188 186 196 207 198 199 210 212 193 208 213 222 215 200 213 206 208 202 196 191 192 191 186 182 179 178 173 177 180 174 168 163 165 163 159 151 145 141 135 141 128 131
223 240 172 175 206 193 191 200 211 210 221 217 210 220 207 223 200 208 209 200 187 186 188 189 185 178 178 174 173 176 178 173 168 168 163 160 158 153 152 147 142 145 141 149
219 224 208 206 207 216 201 208 201 203 203 226 228 202 193 220 184 210 210 200 190 184 183 184 182 177 176 174 174 175 176 173 170 168 162 162 158 161 159 156 152 150 155 158
210 222 219 204 208 204 217 212 208 215 195 211 196 193 158 178 182 189 189 181 176 177 175 176 180 181 178 175 174 173 176 175 170 167 164 161 167 170 167 162 156 162 163 160
269 218 223 220 213 208 214 217 215 215 214 208 216 210 193 207 195 176 177 174 174 177 174 178 181 183 179 177 174 174 175 175 172 172 172 171 174 173 168 162 163 166 170 168
246 220 222 230 249 232 209 215 206 215 217 220 212 222 208 208 204 182 171 169 171 177 179 183 184 183 180 177 176 176 175 176 176 177 177 175 173 171 166 166 169 170 176 173
340 243 230 231 236 236 225 217 210 218 215 223 226 217 223 200 177 166 169 173 179 184 185 185 187 185 183 179 177 176 176 177 177 179 181 175 174 172 172 173 174 173 179 175
310 341 240 226 222 232 238 231 224 219 219 219 220 224 174 181 183 180 177 181 184 187 187 187 189 188 184 180 177 177 177 176 180 180 181 178 177 177 177 177 177 181 181 175
279 314 279 248 200 218 239 231 233 228 225 212 226 199 191 193 197 193 189 183 186 186 186 187 188 188 186 181 180 175 174 178 181 182 182 181 180 182 180 180 182 182 181 183
246 275 265 212 204 221 190 198 210 214 217 212 217 204 197 207 205 196 195 197 195 188 186 186 187 186 182 181 178 175 178 180 182 185 185 184 183 184 182 182 183 181 183 186
222 269 238 239 205 205 215 179 203 215 223 201 210 210 183 174 195 206 196 201 193 187 187 182 182 182 182 182 177 179 181 180 185 189 186 185 185 186 185 182 183 182 187 187
200 49 217 228 256 175 16 318 211 199 217 193 200 202 187 191 208 201 186 186 190 184 182 178 180 182 185 180 179 184 183 185 186 184 186 186 186 188 186 183 179 183 187 185
186 184 241 219 216 216 0 287 285 346 314 320 235 202 189 197 129 154 170 179 180 180 178 180 179 185 184 183 183 187 187 185 183 182 185 186 187 186 184 182 179 185 187 188
213 342 273 269 60 13 27 33 358 340 317 325 302 221 210 193 163 183 149 166 184 186 183 183 184 182 185 188 190 191 185 182 181 182 185 186 185 186 184 183 182 185 189 192
325 335 281 143 234 357 37 28 5 1 346 326 316 268 196 193 200 202 209 185 182 188 188 185 186 185 187 191 194 196 187 179 180 182 185 185 186 185 186 187 186 186 191 196
290 306 325 293 40 296 107 19 356 0 6 354 0 35 134 134 129 140 152 179 189 188 185 187 192 193 192 189 193 196 190 180 181 183 184 185 185 185 186 189 188 191 196 196
353 17 359 341 357 331 337 337 351 10 13 354 8 32 40 89 109 114 103 110 171 184 188 191 198 198 195 190 191 193 189 184 184 184 185 181 177 182 183 181 169 52 61 148